sat.trackr.live / text

‹ back to catalog

STARLINK-31488

NORAD 59009 · 2024-036M

PAYLOAD ACTIVE UNKNOWN

§ Identity

Operator
Country
US
Launch date
2024-02-23
Launch site
AFWTR
Launch vehicle
Mass (kg)
RCS (m²)

Purposes: comms

External: N2YO · Heavens-Above · Gunter

§ Orbital elements

Epoch: 2026-09-20T05:45:42.294240Z

Period
93.85 min
Inclination
53.1580°
Eccentricity
0.0001376
Mean motion
15.34388800 rev/d
Perigee alt
461.8 km
Apogee alt
463.7 km
Semi-major
6,840.9 km
B*
3.7957e-5
RAAN
252.7709°
Arg perigee
79.8165°
Mean anomaly
280.2993°
Rev number
14,513

§ Raw data

STARLINK-314881 59009U 24036M   26263.24007285  .00000906  00000+0  37957-4 0  99942 59009  53.1580 252.7709 0001376  79.8165 280.2993 15.34388800145139

JSON: /api/v1/satellites/59009 · /tle

For live sub-satellite position, see the globe view (requires WebGL).

§ Visibility from observer

Set your observer location to see the next 7 days of passes ≥ 10°. The values pass through the URL so the page stays shareable.

No JS? Fill the form by hand. The geolocation button needs JavaScript.